TimeCDT,TemperatureF,Dew PointF,Humidity,Sea Level PressureIn,VisibilityMPH,Wind Direction,Wind SpeedMPH,Gust SpeedMPH,PrecipitationIn,Events,Conditions,WindDirDegrees,DateUTC
12:13 AM,24.8,21.2,86,30.00,10.0,SSW,6.9,-,N/A,,Clear,210,2013-10-27 05:13:00
12:32 AM,26.6,23.0,86,29.98,10.0,SSW,6.9,-,N/A,,Clear,210,2013-10-27 05:32:00
12:49 AM,24.8,23.0,93,29.97,10.0,SSW,8.1,-,N/A,,Clear,200,2013-10-27 05:49:00
1:13 AM,26.6,23.0,86,29.96,10.0,SSW,6.9,-,N/A,,Clear,210,2013-10-27 06:13:00
1:32 AM,26.6,23.0,86,29.96,10.0,SSW,4.6,-,N/A,,Clear,210,2013-10-27 06:32:00
1:52 AM,24.8,21.2,86,29.95,10.0,SSW,5.8,-,N/A,,Clear,210,2013-10-27 06:52:00
2:13 AM,24.8,23.0,93,29.94,10.0,SSW,5.8,-,N/A,,Clear,210,2013-10-27 07:13:00
2:32 AM,24.8,21.2,86,29.93,10.0,SSW,4.6,-,N/A,,Clear,210,2013-10-27 07:32:00
2:52 AM,24.8,21.2,86,29.92,10.0,SSW,6.9,-,N/A,,Clear,200,2013-10-27 07:52:00
3:13 AM,26.6,23.0,86,29.92,10.0,SSW,6.9,-,N/A,,Clear,200,2013-10-27 08:13:00
3:32 AM,26.6,23.0,86,29.90,10.0,SSW,8.1,-,N/A,,Clear,210,2013-10-27 08:32:00
3:52 AM,26.6,23.0,86,29.89,10.0,SSW,6.9,-,N/A,,Clear,210,2013-10-27 08:52:00
4:13 AM,26.6,23.0,86,29.88,10.0,SSW,8.1,-,N/A,,Clear,200,2013-10-27 09:13:00
4:32 AM,26.6,23.0,86,29.88,10.0,SSW,6.9,-,N/A,,Clear,210,2013-10-27 09:32:00
4:52 AM,26.6,24.8,93,29.86,10.0,SSW,9.2,-,N/A,,Clear,200,2013-10-27 09:52:00
5:13 AM,26.6,24.8,93,29.85,10.0,SSW,9.2,-,N/A,,Clear,200,2013-10-27 10:13:00
5:32 AM,28.4,24.8,86,29.84,10.0,SSW,9.2,-,N/A,,Clear,200,2013-10-27 10:32:00
5:52 AM,28.4,24.8,86,29.84,10.0,South,8.1,-,N/A,,Clear,190,2013-10-27 10:52:00
6:13 AM,28.4,24.8,86,29.83,10.0,South,6.9,-,N/A,,Clear,180,2013-10-27 11:13:00
6:32 AM,28.4,24.8,86,29.82,10.0,South,8.1,-,N/A,,Clear,190,2013-10-27 11:32:00
6:52 AM,28.4,24.8,86,29.81,10.0,South,8.1,-,N/A,,Clear,190,2013-10-27 11:52:00
7:13 AM,28.4,26.6,93,29.79,10.0,South,9.2,-,N/A,,Clear,190,2013-10-27 12:13:00
7:32 AM,28.4,26.6,93,29.79,10.0,South,8.1,-,N/A,,Clear,190,2013-10-27 12:32:00
7:52 AM,28.4,24.8,86,29.79,10.0,SSW,6.9,-,N/A,,Clear,200,2013-10-27 12:52:00
8:12 AM,28.4,24.8,86,29.79,10.0,South,6.9,-,N/A,,Clear,190,2013-10-27 13:12:00
8:33 AM,28.4,26.6,93,29.80,10.0,Calm,Calm,-,N/A,,Clear,0,2013-10-27 13:33:00
8:53 AM,30.2,26.6,86,29.81,10.0,Calm,Calm,-,N/A,,Clear,0,2013-10-27 13:53:00
9:12 AM,33.8,28.4,81,29.81,10.0,SSW,4.6,-,N/A,,Clear,210,2013-10-27 14:12:00
9:33 AM,33.8,28.4,81,29.81,10.0,SW,4.6,-,N/A,,Clear,220,2013-10-27 14:33:00
9:53 AM,35.6,30.2,81,29.81,10.0,Calm,Calm,-,N/A,,Clear,0,2013-10-27 14:53:00
10:12 AM,39.2,30.2,70,29.82,10.0,West,3.5,-,N/A,,Clear,260,2013-10-27 15:12:00
10:33 AM,42.8,32.0,66,29.82,10.0,Calm,Calm,-,N/A,,Clear,0,2013-10-27 15:33:00
10:53 AM,44.6,32.0,61,29.82,10.0,NW,5.8,-,N/A,,Clear,320,2013-10-27 15:53:00
11:12 AM,46.4,33.8,62,29.82,10.0,NNW,6.9,-,N/A,,Clear,330,2013-10-27 16:12:00
11:33 AM,48.2,32.0,54,29.82,10.0,North,10.4,-,N/A,,Clear,360,2013-10-27 16:33:00
11:53 AM,48.2,33.8,58,29.83,10.0,North,8.1,-,N/A,,Clear,10,2013-10-27 16:53:00
12:12 PM,51.8,33.8,50,29.83,10.0,North,12.7,-,N/A,,Clear,10,2013-10-27 17:12:00
12:33 PM,51.8,33.8,50,29.83,10.0,North,11.5,17.3,N/A,,Clear,360,2013-10-27 17:33:00
12:52 PM,51.8,33.8,50,29.83,10.0,NNE,11.5,17.3,N/A,,Clear,20,2013-10-27 17:52:00
1:13 PM,53.6,33.8,47,29.83,10.0,NNE,12.7,18.4,N/A,,Clear,20,2013-10-27 18:13:00
1:33 PM,53.6,33.8,47,29.83,10.0,North,11.5,-,N/A,,Clear,10,2013-10-27 18:33:00
1:52 PM,55.4,33.8,44,29.84,10.0,NNE,13.8,18.4,N/A,,Clear,20,2013-10-27 18:52:00
2:13 PM,55.4,33.8,44,29.84,10.0,NNE,16.1,20.7,N/A,,Clear,20,2013-10-27 19:13:00
2:33 PM,55.4,33.8,44,29.84,10.0,NNE,15.0,23.0,N/A,,Clear,30,2013-10-27 19:33:00
2:52 PM,55.4,33.8,44,29.85,10.0,North,13.8,21.9,N/A,,Clear,10,2013-10-27 19:52:00
3:13 PM,55.4,33.8,44,29.86,10.0,NNE,11.5,20.7,N/A,,Clear,30,2013-10-27 20:13:00
3:33 PM,55.4,33.8,44,29.86,10.0,NNE,12.7,18.4,N/A,,Clear,30,2013-10-27 20:33:00
3:52 PM,55.4,32.0,41,29.87,10.0,NNE,16.1,20.7,N/A,,Clear,20,2013-10-27 20:52:00
4:13 PM,55.4,32.0,41,29.89,10.0,NNE,13.8,19.6,N/A,,Clear,30,2013-10-27 21:13:00
4:33 PM,55.4,32.0,41,29.90,10.0,NNE,16.1,19.6,N/A,,Clear,20,2013-10-27 21:33:00
4:52 PM,53.6,32.0,44,29.91,10.0,NNE,16.1,23.0,N/A,,Clear,20,2013-10-27 21:52:00
5:13 PM,51.8,30.2,44,29.93,10.0,NE,17.3,23.0,N/A,,Clear,40,2013-10-27 22:13:00
5:32 PM,50.0,30.2,47,29.94,10.0,NE,12.7,21.9,N/A,,Clear,40,2013-10-27 22:32:00
5:52 PM,48.2,30.2,50,29.95,10.0,NNE,11.5,17.3,N/A,,Clear,30,2013-10-27 22:52:00
6:13 PM,46.4,30.2,53,29.96,10.0,NNE,9.2,-,N/A,,Clear,20,2013-10-27 23:13:00
6:32 PM,44.6,30.2,57,29.98,10.0,NNE,8.1,-,N/A,,Clear,20,2013-10-27 23:32:00
6:52 PM,42.8,30.2,61,29.99,10.0,NNE,9.2,-,N/A,,Clear,20,2013-10-27 23:52:00
7:13 PM,42.8,30.2,61,30.01,10.0,NNE,6.9,-,N/A,,Clear,30,2013-10-28 00:13:00
7:32 PM,41.0,30.2,65,30.03,10.0,NE,10.4,-,N/A,,Clear,50,2013-10-28 00:32:00
7:52 PM,42.8,30.2,61,30.04,10.0,ENE,10.4,19.6,N/A,,Clear,60,2013-10-28 00:52:00
8:13 PM,41.0,28.4,61,30.06,10.0,ENE,11.5,19.6,N/A,,Clear,60,2013-10-28 01:13:00
8:32 PM,39.2,28.4,65,30.07,10.0,ENE,11.5,17.3,N/A,,Clear,60,2013-10-28 01:32:00
8:52 PM,39.2,28.4,65,30.08,10.0,ENE,9.2,-,N/A,,Clear,70,2013-10-28 01:52:00
9:12 PM,39.2,28.4,65,30.10,10.0,ENE,6.9,-,N/A,,Clear,70,2013-10-28 02:12:00
9:32 PM,37.4,28.4,70,30.11,10.0,NE,8.1,-,N/A,,Clear,50,2013-10-28 02:32:00
9:53 PM,35.6,28.4,75,30.12,10.0,NE,6.9,-,N/A,,Clear,50,2013-10-28 02:53:00
10:12 PM,33.8,28.4,81,30.13,10.0,NE,6.9,-,N/A,,Clear,40,2013-10-28 03:12:00
10:32 PM,33.8,26.6,75,30.14,10.0,NE,5.8,-,N/A,,Clear,50,2013-10-28 03:32:00
10:53 PM,32.0,26.6,80,30.15,10.0,NE,5.8,-,N/A,,Clear,40,2013-10-28 03:53:00
11:12 PM,32.0,26.6,80,30.16,10.0,NE,6.9,-,N/A,,Clear,40,2013-10-28 04:12:00
11:32 PM,28.4,24.8,86,30.17,10.0,NNE,3.5,-,N/A,,Clear,30,2013-10-28 04:32:00
11:53 PM,26.6,24.8,93,30.17,10.0,NNE,5.8,-,N/A,,Clear,30,2013-10-28 04:53:00